Back to catalog

FENGYUN 1C DEB *

LostSSO
NORAD 47044·DEBRIS·🇨🇳 China

Launched May 10, 1999 from Taiyuan Satellite Launch Center

Loading…

Next Passes (next 24 hours)

TLE

StaleSource: Space-Track

Epoch: Aug 22, 2022, 22:53 UTC

1 47044U 99025FBW 22234.95413372  .00001211  00000-0  64023-3 0  9994
2 47044  99.0368 291.2233 0074814  58.3197  66.6945 14.14274429589810

Track FENGYUN 1C DEB * in real time with AllMySat

Download on the App Store